Time,TemperatureF,DewpointF,PressureIn,WindDirection,WindDirectionDegrees,WindSpeedMPH,WindSpeedGustMPH,Humidity,HourlyPrecipIn,Conditions,Clouds,dailyrainin,SoftwareType,DateUTC
2013-01-18 00:00:00,54.3,19.3,29.62,SSW,202,3.4,3.4,25,0.00,,CLR,0.00,VWS V14.01,2013-01-18 08:00:00,
2013-01-18 00:05:00,54.3,19.3,29.62,SSW,202,3.4,3.4,25,0.00,,CLR,0.00,VWS V14.01,2013-01-18 08:05:00,
2013-01-18 00:10:00,53.8,18.8,29.62,SSW,202,3.4,3.4,25,0.00,,CLR,0.00,VWS V14.01,2013-01-18 08:10:00,
2013-01-18 00:15:00,53.2,19.3,29.62,SSW,202,3.4,3.4,26,0.00,,CLR,0.00,VWS V14.01,2013-01-18 08:15:00,
2013-01-18 00:20:00,53.1,19.1,29.62,SSW,202,3.4,3.4,26,0.00,,CLR,0.00,VWS V14.01,2013-01-18 08:20:00,
2013-01-18 00:25:00,52.7,18.8,29.62,SSW,202,3.4,3.4,26,0.00,,CLR,0.00,VWS V14.01,2013-01-18 08:25:00,
2013-01-18 00:30:00,51.4,17.7,29.65,SSW,202,3.4,3.4,26,0.00,,CLR,0.00,VWS V14.01,2013-01-18 08:30:00,
2013-01-18 00:35:00,51.3,17.6,29.65,SSW,202,3.4,3.4,26,0.00,,CLR,0.00,VWS V14.01,2013-01-18 08:35:00,
2013-01-18 00:40:00,51.1,17.4,29.65,SSW,202,3.4,3.4,26,0.00,,CLR,0.00,VWS V14.01,2013-01-18 08:40:00,
2013-01-18 00:45:00,51.1,17.4,29.62,SSW,202,3.4,3.4,26,0.00,,CLR,0.00,VWS V14.01,2013-01-18 08:45:00,
2013-01-18 00:50:00,52.0,18.2,29.62,SSW,202,3.4,3.4,26,0.00,,CLR,0.00,VWS V14.01,2013-01-18 08:50:00,
2013-01-18 00:55:00,51.6,17.9,29.62,SSW,202,3.4,3.4,26,0.00,,CLR,0.00,VWS V14.01,2013-01-18 08:55:00,
2013-01-18 01:00:00,51.6,17.9,29.62,SSW,202,3.4,3.4,26,0.00,,CLR,0.00,VWS V14.01,2013-01-18 09:00:00,
2013-01-18 01:05:00,52.2,18.3,29.62,SSW,202,3.4,3.4,26,0.00,,CLR,0.00,VWS V14.01,2013-01-18 09:05:00,
2013-01-18 01:10:00,52.5,18.6,29.62,SSW,202,3.4,3.4,26,0.00,,CLR,0.00,VWS V14.01,2013-01-18 09:10:00,
2013-01-18 01:15:00,52.3,18.5,29.62,SSW,202,3.4,3.4,26,0.00,,CLR,0.00,VWS V14.01,2013-01-18 09:15:00,
2013-01-18 01:20:00,51.8,18.0,29.62,SSW,202,3.4,3.4,26,0.00,,CLR,0.00,VWS V14.01,2013-01-18 09:20:00,
2013-01-18 01:25:00,51.3,17.6,29.62,SSW,202,3.4,3.4,26,0.00,,CLR,0.00,VWS V14.01,2013-01-18 09:25:00,
2013-01-18 01:30:00,51.6,17.9,29.62,SSW,202,3.4,3.4,26,0.00,,CLR,0.00,VWS V14.01,2013-01-18 09:30:00,
2013-01-18 01:35:00,51.3,17.6,29.62,SSW,202,3.4,3.4,26,0.00,,CLR,0.00,VWS V14.01,2013-01-18 09:35:00,
2013-01-18 01:40:00,50.5,17.0,29.62,SSW,202,3.4,3.4,26,0.00,,CLR,0.00,VWS V14.01,2013-01-18 09:40:00,
2013-01-18 01:45:00,50.4,17.7,29.62,SSW,202,3.4,3.4,27,0.00,,CLR,0.00,VWS V14.01,2013-01-18 09:45:00,
2013-01-18 01:50:00,50.7,18.0,29.62,SSW,202,3.4,3.4,27,0.00,,CLR,0.00,VWS V14.01,2013-01-18 09:50:00,
2013-01-18 01:55:00,50.5,17.8,29.62,SSW,202,3.4,3.4,27,0.00,,CLR,0.00,VWS V14.01,2013-01-18 09:55:00,
2013-01-18 02:00:00,50.2,17.5,29.62,SSW,202,3.4,3.4,27,0.00,,CLR,0.00,VWS V14.01,2013-01-18 10:00:00,
2013-01-18 02:05:00,51.3,18.4,29.62,SSW,202,3.4,3.4,27,0.00,,CLR,0.00,VWS V14.01,2013-01-18 10:05:00,
2013-01-18 02:10:00,51.4,18.6,29.62,SSW,202,3.4,3.4,27,0.00,,CLR,0.00,VWS V14.01,2013-01-18 10:10:00,
2013-01-18 02:15:00,52.0,18.2,29.62,SSW,202,3.4,3.4,26,0.00,,CLR,0.00,VWS V14.01,2013-01-18 10:15:00,
2013-01-18 02:20:00,52.5,18.6,29.62,SSW,202,3.4,3.4,26,0.00,,CLR,0.00,VWS V14.01,2013-01-18 10:20:00,
2013-01-18 02:25:00,52.7,18.8,29.62,SSW,202,3.4,3.4,26,0.00,,CLR,0.00,VWS V14.01,2013-01-18 10:25:00,
2013-01-18 02:30:00,53.2,19.3,29.62,SSW,202,3.4,3.4,26,0.00,,CLR,0.00,VWS V14.01,2013-01-18 10:30:00,
2013-01-18 02:35:00,53.1,19.1,29.62,SSW,202,3.4,3.4,26,0.00,,CLR,0.00,VWS V14.01,2013-01-18 10:35:00,
2013-01-18 02:40:00,53.1,19.1,29.62,SSW,202,3.4,3.4,26,0.00,,CLR,0.00,VWS V14.01,2013-01-18 10:40:00,
2013-01-18 02:45:00,53.4,19.4,29.62,SSW,202,3.4,3.4,26,0.00,,CLR,0.00,VWS V14.01,2013-01-18 10:45:00,
2013-01-18 02:50:00,52.7,18.8,29.62,SSW,202,3.4,3.4,26,0.00,,CLR,0.00,VWS V14.01,2013-01-18 10:50:00,
2013-01-18 02:55:00,52.3,18.5,29.62,SSW,202,3.4,3.4,26,0.00,,CLR,0.00,VWS V14.01,2013-01-18 10:55:00,
2013-01-18 03:00:00,52.3,18.5,29.62,SSW,202,3.4,3.4,26,0.00,,CLR,0.00,VWS V14.01,2013-01-18 11:00:00,
2013-01-18 03:05:00,52.0,18.2,29.62,SSW,202,3.4,3.4,26,0.00,,CLR,0.00,VWS V14.01,2013-01-18 11:05:00,
2013-01-18 03:10:00,51.3,17.6,29.62,SSW,202,3.4,3.4,26,0.00,,CLR,0.00,VWS V14.01,2013-01-18 11:10:00,
2013-01-18 03:15:00,50.9,17.2,29.62,SSW,202,3.4,3.4,26,0.00,,CLR,0.00,VWS V14.01,2013-01-18 11:15:00,
2013-01-18 03:20:00,50.4,16.8,29.62,SSW,202,3.4,3.4,26,0.00,,CLR,0.00,VWS V14.01,2013-01-18 11:20:00,
2013-01-18 03:26:00,50.2,16.6,29.62,SSW,202,3.4,3.4,26,0.00,,CLR,0.00,VWS V14.01,2013-01-18 11:26:00,
2013-01-18 03:31:00,50.2,16.6,29.62,SSW,202,3.4,3.4,26,0.00,,CLR,0.00,VWS V14.01,2013-01-18 11:31:00,
2013-01-18 03:36:00,49.8,17.2,29.62,SSW,202,3.4,3.4,27,0.00,,CLR,0.00,VWS V14.01,2013-01-18 11:36:00,
2013-01-18 03:41:00,50.4,17.7,29.62,SSW,202,3.4,3.4,27,0.00,,CLR,0.00,VWS V14.01,2013-01-18 11:41:00,
2013-01-18 03:46:00,50.4,17.7,29.59,SSW,202,3.4,3.4,27,0.00,,CLR,0.00,VWS V14.01,2013-01-18 11:46:00,
2013-01-18 03:51:00,50.5,17.8,29.59,SSW,202,3.4,3.4,27,0.00,,CLR,0.00,VWS V14.01,2013-01-18 11:51:00,
2013-01-18 03:56:00,50.0,17.4,29.59,SSW,202,3.4,3.4,27,0.00,,CLR,0.00,VWS V14.01,2013-01-18 11:56:00,
2013-01-18 04:01:00,49.8,17.2,29.59,SSW,202,3.4,3.4,27,0.00,,CLR,0.00,VWS V14.01,2013-01-18 12:01:00,
2013-01-18 04:06:00,49.8,17.2,29.59,SSW,202,3.4,3.4,27,0.00,,CLR,0.00,VWS V14.01,2013-01-18 12:06:00,
2013-01-18 04:11:00,50.0,17.4,29.59,SSW,202,3.4,3.4,27,0.00,,CLR,0.00,VWS V14.01,2013-01-18 12:11:00,
2013-01-18 04:16:00,49.5,16.9,29.59,SSW,202,3.4,3.4,27,0.00,,CLR,0.00,VWS V14.01,2013-01-18 12:16:00,
2013-01-18 04:21:00,49.6,17.0,29.59,SSW,202,3.4,3.4,27,0.00,,CLR,0.00,VWS V14.01,2013-01-18 12:21:00,
2013-01-18 04:26:00,50.2,17.5,29.59,SSW,202,3.4,3.4,27,0.00,,CLR,0.00,VWS V14.01,2013-01-18 12:26:00,
2013-01-18 04:31:00,50.0,17.4,29.59,SSW,202,3.4,3.4,27,0.00,,CLR,0.00,VWS V14.01,2013-01-18 12:31:00,
2013-01-18 04:36:00,50.2,17.5,29.59,SSW,202,3.4,3.4,27,0.00,,CLR,0.00,VWS V14.01,2013-01-18 12:36:00,
2013-01-18 04:41:00,50.5,17.8,29.59,SSW,202,3.4,3.4,27,0.00,,CLR,0.00,VWS V14.01,2013-01-18 12:41:00,
2013-01-18 04:46:00,50.5,17.8,29.59,SSW,202,3.4,3.4,27,0.00,,CLR,0.00,VWS V14.01,2013-01-18 12:46:00,
2013-01-18 04:51:00,50.5,17.8,29.59,SSW,202,3.4,3.4,27,0.00,,CLR,0.00,VWS V14.01,2013-01-18 12:51:00,
2013-01-18 04:56:00,50.5,17.8,29.59,SSW,202,3.4,3.4,27,0.00,,CLR,0.00,VWS V14.01,2013-01-18 12:56:00,
2013-01-18 05:01:00,50.0,17.4,29.59,SSW,202,3.4,3.4,27,0.00,,CLR,0.00,VWS V14.01,2013-01-18 13:01:00,
2013-01-18 05:06:00,49.5,16.9,29.59,SSW,202,3.4,3.4,27,0.00,,CLR,0.00,VWS V14.01,2013-01-18 13:06:00,
2013-01-18 05:11:00,50.0,17.4,29.59,SSW,202,3.4,3.4,27,0.00,,CLR,0.00,VWS V14.01,2013-01-18 13:11:00,
2013-01-18 05:16:00,49.6,17.0,29.59,SSW,202,3.4,3.4,27,0.00,,CLR,0.00,VWS V14.01,2013-01-18 13:16:00,
2013-01-18 05:21:00,49.5,16.9,29.59,SSW,202,3.4,3.4,27,0.00,,CLR,0.00,VWS V14.01,2013-01-18 13:21:00,
2013-01-18 05:26:00,49.1,16.6,29.59,SSW,202,3.4,3.4,27,0.00,,CLR,0.00,VWS V14.01,2013-01-18 13:26:00,
2013-01-18 05:31:00,48.9,16.4,29.59,SSW,202,3.4,3.4,27,0.00,,CLR,0.00,VWS V14.01,2013-01-18 13:31:00,
2013-01-18 05:36:00,49.3,16.7,29.59,SSW,202,3.4,3.4,27,0.00,,CLR,0.00,VWS V14.01,2013-01-18 13:36:00,
2013-01-18 05:41:00,49.3,16.7,29.59,SSW,202,3.4,3.4,27,0.00,,CLR,0.00,VWS V14.01,2013-01-18 13:41:00,
2013-01-18 05:46:00,50.0,17.4,29.59,SSW,202,3.4,3.4,27,0.00,,CLR,0.00,VWS V14.01,2013-01-18 13:46:00,
2013-01-18 05:51:00,50.0,17.4,29.59,SSW,202,3.4,3.4,27,0.00,,CLR,0.00,VWS V14.01,2013-01-18 13:51:00,
2013-01-18 05:56:00,50.0,17.4,29.59,SSW,202,3.4,3.4,27,0.00,,CLR,0.00,VWS V14.01,2013-01-18 13:56:00,
2013-01-18 06:01:00,49.8,17.2,29.59,SSW,202,3.4,3.4,27,0.00,,SCT220,0.00,VWS V14.01,2013-01-18 14:01:00,
2013-01-18 06:06:00,49.6,17.0,29.59,SSW,202,3.4,3.4,27,0.00,,SCT220,0.00,VWS V14.01,2013-01-18 14:06:00,
2013-01-18 06:11:00,49.6,17.9,29.59,SSW,202,3.4,3.4,28,0.00,,SCT220,0.00,VWS V14.01,2013-01-18 14:11:00,
2013-01-18 06:16:00,50.2,17.5,29.59,SSW,202,3.4,3.4,27,0.00,,SCT220,0.00,VWS V14.01,2013-01-18 14:16:00,
2013-01-18 06:21:00,50.4,17.7,29.59,SSW,202,3.4,3.4,27,0.00,,SCT220,0.00,VWS V14.01,2013-01-18 14:21:00,
2013-01-18 06:26:00,50.4,17.7,29.59,SSW,202,3.4,3.4,27,0.00,,SCT220,0.00,VWS V14.01,2013-01-18 14:26:00,
2013-01-18 06:31:00,50.7,18.0,29.62,SSW,202,3.4,3.4,27,0.00,,SCT220,0.00,VWS V14.01,2013-01-18 14:31:00,
2013-01-18 06:37:00,50.5,17.8,29.62,SSW,202,3.4,3.4,27,0.00,,SCT220,0.00,VWS V14.01,2013-01-18 14:37:00,
2013-01-18 06:42:00,50.7,18.0,29.62,SSW,202,3.4,3.4,27,0.00,,SCT220,0.00,VWS V14.01,2013-01-18 14:42:00,
2013-01-18 06:47:00,50.5,17.8,29.62,SSW,202,3.4,3.4,27,0.00,,SCT220,0.00,VWS V14.01,2013-01-18 14:47:00,
2013-01-18 06:52:00,49.8,18.0,29.62,SSW,202,3.4,3.4,28,0.00,,SCT220,0.00,VWS V14.01,2013-01-18 14:52:00,
2013-01-18 06:57:00,49.5,17.7,29.62,SSW,202,3.4,3.4,28,0.00,,SCT220,0.00,VWS V14.01,2013-01-18 14:57:00,
2013-01-18 07:02:00,49.5,17.7,29.62,SSW,202,3.4,3.4,28,0.00,,SCT220,0.00,VWS V14.01,2013-01-18 15:02:00,
2013-01-18 07:07:00,49.6,17.9,29.62,SSW,202,3.4,3.4,28,0.00,,SCT220,0.00,VWS V14.01,2013-01-18 15:07:00,
2013-01-18 07:12:00,50.0,17.4,29.62,SSW,202,3.4,3.4,27,0.00,,SCT220,0.00,VWS V14.01,2013-01-18 15:12:00,
2013-01-18 07:17:00,49.8,18.0,29.62,SSW,202,3.4,3.4,28,0.00,,SCT220,0.00,VWS V14.01,2013-01-18 15:17:00,
2013-01-18 07:22:00,49.8,18.0,29.62,SSW,202,3.4,3.4,28,0.00,,SCT220,0.00,VWS V14.01,2013-01-18 15:22:00,
2013-01-18 07:27:00,50.0,17.4,29.62,SSW,202,3.4,3.4,27,0.00,,SCT220,0.00,VWS V14.01,2013-01-18 15:27:00,
2013-01-18 07:32:00,49.8,18.0,29.62,SSW,202,3.4,3.4,28,0.00,,SCT220,0.00,VWS V14.01,2013-01-18 15:32:00,
2013-01-18 07:37:00,49.8,18.0,29.62,SSW,202,3.4,3.4,28,0.00,,SCT220,0.00,VWS V14.01,2013-01-18 15:37:00,
2013-01-18 07:42:00,50.5,17.8,29.62,SSW,202,3.4,3.4,27,0.00,,SCT220,0.00,VWS V14.01,2013-01-18 15:42:00,
2013-01-18 07:47:00,51.3,18.4,29.62,SSW,202,3.4,3.4,27,0.00,,SCT220,0.00,VWS V14.01,2013-01-18 15:47:00,
2013-01-18 07:52:00,51.6,18.8,29.62,SSW,202,3.4,3.4,27,0.00,,SCT220,0.00,VWS V14.01,2013-01-18 15:52:00,
2013-01-18 07:57:00,51.8,18.9,29.62,SSW,202,3.4,3.4,27,0.00,,SCT220,0.00,VWS V14.01,2013-01-18 15:57:00,
2013-01-18 08:02:00,52.2,19.2,29.62,SSW,202,3.4,3.4,27,0.00,,CLR,0.00,VWS V14.01,2013-01-18 16:02:00,
2013-01-18 08:07:00,52.0,19.1,29.62,SSW,202,3.4,3.4,27,0.00,,CLR,0.00,VWS V14.01,2013-01-18 16:07:00,
2013-01-18 08:12:00,52.0,19.1,29.62,SSW,202,3.4,3.4,27,0.00,,CLR,0.00,VWS V14.01,2013-01-18 16:12:00,
2013-01-18 08:17:00,52.2,20.1,29.59,SSW,202,3.4,3.4,28,0.00,,CLR,0.00,VWS V14.01,2013-01-18 16:17:00,
2013-01-18 08:22:00,52.3,20.2,29.59,SSW,202,3.4,3.4,28,0.00,,CLR,0.00,VWS V14.01,2013-01-18 16:22:00,
2013-01-18 08:27:00,53.1,20.8,29.59,SSW,202,3.4,3.4,28,0.00,,CLR,0.00,VWS V14.01,2013-01-18 16:27:00,
2013-01-18 08:32:00,55.8,23.2,29.65,SSW,202,3.4,3.4,28,0.00,,CLR,0.00,VWS V14.01,2013-01-18 16:32:00,
2013-01-18 08:37:00,58.1,26.0,29.65,SSW,202,3.4,3.4,29,0.00,,CLR,0.00,VWS V14.01,2013-01-18 16:37:00,
2013-01-18 08:42:00,59.5,27.3,29.65,SSW,202,3.4,3.4,29,0.00,,CLR,0.00,VWS V14.01,2013-01-18 16:42:00,
2013-01-18 08:47:00,60.8,27.5,29.62,SSW,202,3.4,3.4,28,0.00,,CLR,0.00,VWS V14.01,2013-01-18 16:47:00,
2013-01-18 08:52:00,62.1,28.6,29.62,SSW,202,3.4,3.4,28,0.00,,CLR,0.00,VWS V14.01,2013-01-18 16:52:00,
2013-01-18 08:57:00,63.7,29.1,29.62,SSW,202,3.4,3.4,27,0.00,,CLR,0.00,VWS V14.01,2013-01-18 16:57:00,
2013-01-18 09:02:00,64.8,30.0,29.62,SSW,202,3.4,3.4,27,0.00,,SCT230,0.00,VWS V14.01,2013-01-18 17:02:00,
2013-01-18 09:07:00,66.4,30.5,29.62,SSW,202,3.4,3.4,26,0.00,,SCT230,0.00,VWS V14.01,2013-01-18 17:07:00,
2013-01-18 09:12:00,67.5,31.4,29.62,SSW,202,3.4,3.4,26,0.00,,SCT230,0.00,VWS V14.01,2013-01-18 17:12:00,
2013-01-18 09:17:00,67.3,31.2,29.62,SSW,202,3.4,3.4,26,0.00,,SCT230,0.00,VWS V14.01,2013-01-18 17:17:00,
2013-01-18 09:22:00,68.2,32.0,29.62,SSW,202,3.4,3.4,26,0.00,,SCT230,0.00,VWS V14.01,2013-01-18 17:22:00,
2013-01-18 09:27:00,69.8,32.4,29.62,SSW,202,3.4,3.4,25,0.00,,SCT230,0.00,VWS V14.01,2013-01-18 17:27:00,
2013-01-18 09:32:00,70.5,32.0,29.62,SSW,202,3.4,3.4,24,0.00,,SCT230,0.00,VWS V14.01,2013-01-18 17:32:00,
2013-01-18 09:37:00,72.0,33.2,29.62,SSW,202,3.4,3.4,24,0.00,,SCT230,0.00,VWS V14.01,2013-01-18 17:37:00,
2013-01-18 09:42:00,72.7,32.8,29.62,SSW,202,3.4,3.4,23,0.00,,SCT230,0.00,VWS V14.01,2013-01-18 17:42:00,
2013-01-18 09:47:00,72.5,33.7,29.62,SSW,202,3.4,3.4,24,0.00,,SCT230,0.00,VWS V14.01,2013-01-18 17:47:00,
2013-01-18 09:52:00,72.3,33.5,29.62,SSW,202,3.4,3.4,24,0.00,,SCT230,0.00,VWS V14.01,2013-01-18 17:52:00,
2013-01-18 09:57:00,73.4,33.4,29.62,SSW,202,3.4,3.4,23,0.00,,SCT230,0.00,VWS V14.01,2013-01-18 17:57:00,
2013-01-18 10:02:00,74.1,34.0,29.62,SSW,202,3.4,3.4,23,0.00,,SCT230,0.00,VWS V14.01,2013-01-18 18:02:00,
2013-01-18 10:07:00,75.0,34.7,29.62,SSW,202,3.4,3.4,23,0.00,,SCT230,0.00,VWS V14.01,2013-01-18 18:07:00,
2013-01-18 10:12:00,75.0,34.7,29.62,SSW,202,3.4,3.4,23,0.00,,SCT230,0.00,VWS V14.01,2013-01-18 18:12:00,
2013-01-18 10:17:00,74.8,34.6,29.62,SSW,202,3.4,3.4,23,0.00,,SCT230,0.00,VWS V14.01,2013-01-18 18:17:00,
2013-01-18 10:22:00,76.1,34.5,29.62,SSW,202,3.4,3.4,22,0.00,,SCT230,0.00,VWS V14.01,2013-01-18 18:22:00,
2013-01-18 10:27:00,76.1,34.5,29.62,SSW,202,3.4,3.4,22,0.00,,SCT230,0.00,VWS V14.01,2013-01-18 18:27:00,
2013-01-18 10:32:00,77.2,34.3,29.62,SSW,202,3.4,3.4,21,0.00,,SCT230,0.00,VWS V14.01,2013-01-18 18:32:00,
2013-01-18 10:37:00,77.9,34.9,29.62,SSW,202,3.4,3.4,21,0.00,,SCT230,0.00,VWS V14.01,2013-01-18 18:37:00,
2013-01-18 10:43:00,77.9,34.9,29.62,SSW,202,3.4,3.4,21,0.00,,SCT230,0.00,VWS V14.01,2013-01-18 18:43:00,
2013-01-18 10:48:00,79.0,35.8,29.62,SSW,202,3.4,3.4,21,0.00,,SCT230,0.00,VWS V14.01,2013-01-18 18:48:00,
2013-01-18 10:53:00,79.3,36.0,29.62,SSW,202,3.4,3.4,21,0.00,,SCT230,0.00,VWS V14.01,2013-01-18 18:53:00,
2013-01-18 10:58:00,80.2,36.8,29.62,SSW,202,3.4,3.4,21,0.00,,SCT230,0.00,VWS V14.01,2013-01-18 18:58:00,
2013-01-18 11:03:00,80.1,35.4,29.62,SSW,202,3.4,3.4,20,0.00,,SCT230,0.00,VWS V14.01,2013-01-18 19:03:00,
2013-01-18 11:08:00,80.2,35.6,29.62,SSW,202,3.4,3.4,20,0.00,,SCT230,0.00,VWS V14.01,2013-01-18 19:08:00,
2013-01-18 11:13:00,81.3,36.5,29.62,SSW,202,3.4,3.4,20,0.00,,SCT230,0.00,VWS V14.01,2013-01-18 19:13:00,
2013-01-18 11:18:00,82.2,35.9,29.59,SSW,202,3.4,3.4,19,0.00,,SCT230,0.00,VWS V14.01,2013-01-18 19:18:00,
2013-01-18 11:23:00,81.9,35.6,29.59,SSW,202,3.4,3.4,19,0.00,,SCT230,0.00,VWS V14.01,2013-01-18 19:23:00,
2013-01-18 11:28:00,81.9,35.6,29.59,SSW,202,3.4,3.4,19,0.00,,SCT230,0.00,VWS V14.01,2013-01-18 19:28:00,
2013-01-18 11:33:00,82.2,35.9,29.59,SSW,202,3.4,3.4,19,0.00,,SCT230,0.00,VWS V14.01,2013-01-18 19:33:00,
2013-01-18 11:38:00,82.8,36.3,29.59,SSW,202,3.4,3.4,19,0.00,,SCT230,0.00,VWS V14.01,2013-01-18 19:38:00,
2013-01-18 11:43:00,82.4,36.0,29.59,SSW,202,3.4,3.4,19,0.00,,SCT230,0.00,VWS V14.01,2013-01-18 19:43:00,
2013-01-18 11:48:00,82.9,36.5,29.59,SSW,202,3.4,3.4,19,0.00,,SCT230,0.00,VWS V14.01,2013-01-18 19:48:00,
2013-01-18 11:53:00,83.1,36.6,29.59,SSW,202,3.4,3.4,19,0.00,,SCT230,0.00,VWS V14.01,2013-01-18 19:53:00,
2013-01-18 11:58:00,83.1,32.3,29.59,SSW,202,3.4,3.4,16,0.00,,SCT230,0.00,VWS V14.01,2013-01-18 19:58:00,
2013-01-18 12:03:00,83.1,32.3,29.56,SSW,202,3.4,3.4,16,0.00,,FEW230,0.00,VWS V14.01,2013-01-18 20:03:00,
2013-01-18 12:08:00,82.9,32.2,29.56,SSW,202,3.4,3.4,16,0.00,,FEW230,0.00,VWS V14.01,2013-01-18 20:08:00,
2013-01-18 12:13:00,83.1,32.3,29.56,SSW,202,3.4,3.4,16,0.00,,FEW230,0.00,VWS V14.01,2013-01-18 20:13:00,
2013-01-18 12:18:00,83.5,32.6,29.56,SSW,202,3.4,3.4,16,0.00,,FEW230,0.00,VWS V14.01,2013-01-18 20:18:00,
2013-01-18 12:26:00,84.4,33.3,29.56,SSW,202,3.4,3.4,16,0.00,,FEW230,0.00,VWS V14.01,2013-01-18 20:26:00,
2013-01-18 12:31:00,84.9,33.8,29.56,SSW,202,3.4,3.4,16,0.00,,FEW230,0.00,VWS V14.01,2013-01-18 20:31:00,
2013-01-18 12:36:00,85.5,34.2,29.56,SSW,202,3.4,3.4,16,0.00,,FEW230,0.00,VWS V14.01,2013-01-18 20:36:00,
2013-01-18 12:41:00,85.5,34.2,29.56,SSW,202,3.4,3.4,16,0.00,,FEW230,0.00,VWS V14.01,2013-01-18 20:41:00,
2013-01-18 12:46:00,84.4,33.3,29.56,SSW,202,3.4,3.4,16,0.00,,FEW230,0.00,VWS V14.01,2013-01-18 20:46:00,
2013-01-18 12:51:00,84.4,33.3,29.56,SSW,202,3.4,3.4,16,0.00,,FEW230,0.00,VWS V14.01,2013-01-18 20:51:00,
2013-01-18 12:56:00,84.6,33.5,29.56,SSW,202,3.4,3.4,16,0.00,,FEW230,0.00,VWS V14.01,2013-01-18 20:56:00,
2013-01-18 13:01:00,84.6,33.5,29.56,SSW,202,3.4,3.4,16,0.00,,FEW250,0.00,VWS V14.01,2013-01-18 21:01:00,
2013-01-18 13:06:00,83.7,32.8,29.56,SSW,202,3.4,3.4,16,0.00,,FEW250,0.00,VWS V14.01,2013-01-18 21:06:00,
2013-01-18 13:11:00,83.7,32.8,29.56,SSW,202,3.4,3.4,16,0.00,,FEW250,0.00,VWS V14.01,2013-01-18 21:11:00,
2013-01-18 13:16:00,83.8,32.9,29.56,SSW,202,3.4,3.4,16,0.00,,FEW250,0.00,VWS V14.01,2013-01-18 21:16:00,
2013-01-18 13:21:00,84.2,33.2,29.56,SSW,202,3.4,3.4,16,0.00,,FEW250,0.00,VWS V14.01,2013-01-18 21:21:00,
2013-01-18 13:26:00,83.8,32.9,29.56,SSW,202,3.4,3.4,16,0.00,,FEW250,0.00,VWS V14.01,2013-01-18 21:26:00,
2013-01-18 13:31:00,83.8,32.9,29.56,SSW,202,3.4,3.4,16,0.00,,FEW250,0.00,VWS V14.01,2013-01-18 21:31:00,
2013-01-18 13:36:00,82.9,32.2,29.56,SSW,202,3.4,3.4,16,0.00,,FEW250,0.00,VWS V14.01,2013-01-18 21:36:00,
2013-01-18 13:41:00,82.6,31.9,29.56,SSW,202,3.4,3.4,16,0.00,,FEW250,0.00,VWS V14.01,2013-01-18 21:41:00,
2013-01-18 13:46:00,82.9,32.2,29.56,SSW,202,3.4,3.4,16,0.00,,FEW250,0.00,VWS V14.01,2013-01-18 21:46:00,
2013-01-18 13:51:00,82.4,31.8,29.56,SSW,202,3.4,3.4,16,0.00,,FEW250,0.00,VWS V14.01,2013-01-18 21:51:00,
2013-01-18 13:56:00,82.4,31.8,29.56,SSW,202,3.4,3.4,16,0.00,,FEW250,0.00,VWS V14.01,2013-01-18 21:56:00,
2013-01-18 14:01:00,82.2,33.1,29.56,SSW,202,3.4,3.4,17,0.00,,SCT250,0.00,VWS V14.01,2013-01-18 22:01:00,
2013-01-18 14:06:00,82.4,31.8,29.56,SSW,202,3.4,3.4,16,0.00,,SCT250,0.00,VWS V14.01,2013-01-18 22:06:00,
2013-01-18 14:11:00,82.4,31.8,29.56,SSW,202,3.4,3.4,16,0.00,,SCT250,0.00,VWS V14.01,2013-01-18 22:11:00,
2013-01-18 14:16:00,81.5,32.5,29.56,SSW,202,3.4,3.4,17,0.00,,SCT250,0.00,VWS V14.01,2013-01-18 22:16:00,
2013-01-18 14:21:00,81.1,32.2,29.56,SSW,202,3.4,3.4,17,0.00,,SCT250,0.00,VWS V14.01,2013-01-18 22:21:00,
2013-01-18 14:26:00,80.4,31.7,29.56,SSW,202,3.4,3.4,17,0.00,,SCT250,0.00,VWS V14.01,2013-01-18 22:26:00,
2013-01-18 14:31:00,79.5,27.9,29.56,SSW,202,3.4,3.4,15,0.00,,SCT250,0.00,VWS V14.01,2013-01-18 22:31:00,
2013-01-18 14:36:00,79.3,30.8,29.56,SSW,202,3.4,3.4,17,0.00,,SCT250,0.00,VWS V14.01,2013-01-18 22:36:00,
2013-01-18 14:41:00,79.3,30.8,29.56,SSW,202,3.4,3.4,17,0.00,,SCT250,0.00,VWS V14.01,2013-01-18 22:41:00,
2013-01-18 14:47:00,79.0,30.5,29.56,SSW,202,3.4,3.4,17,0.00,,SCT250,0.00,VWS V14.01,2013-01-18 22:47:00,
2013-01-18 14:52:00,78.6,31.6,29.56,SSW,202,3.4,3.4,18,0.00,,SCT250,0.00,VWS V14.01,2013-01-18 22:52:00,
2013-01-18 14:57:00,78.8,30.4,29.56,SSW,202,3.4,3.4,17,0.00,,SCT250,0.00,VWS V14.01,2013-01-18 22:57:00,
2013-01-18 15:02:00,78.6,27.1,29.56,SSW,202,3.4,3.4,15,0.00,,BKN250,0.00,VWS V14.01,2013-01-18 23:02:00,
2013-01-18 15:07:00,78.6,27.1,29.56,SSW,202,3.4,3.4,15,0.00,,BKN250,0.00,VWS V14.01,2013-01-18 23:07:00,
2013-01-18 15:12:00,79.0,30.5,29.56,SSW,202,3.4,3.4,17,0.00,,BKN250,0.00,VWS V14.01,2013-01-18 23:12:00,
2013-01-18 15:17:00,79.5,30.9,29.56,SSW,202,3.4,3.4,17,0.00,,BKN250,0.00,VWS V14.01,2013-01-18 23:17:00,
2013-01-18 15:22:00,79.7,31.1,29.56,SSW,202,3.4,3.4,17,0.00,,BKN250,0.00,VWS V14.01,2013-01-18 23:22:00,
2013-01-18 15:27:00,79.7,31.1,29.56,SSW,202,3.4,3.4,17,0.00,,BKN250,0.00,VWS V14.01,2013-01-18 23:27:00,
2013-01-18 15:32:00,80.1,31.4,29.56,SSW,202,3.4,3.4,17,0.00,,BKN250,0.00,VWS V14.01,2013-01-18 23:32:00,
2013-01-18 15:38:00,80.1,31.4,29.56,SSW,202,3.4,3.4,17,0.00,,BKN250,0.00,VWS V14.01,2013-01-18 23:38:00,
2013-01-18 15:43:00,80.2,28.4,29.56,SSW,202,3.4,3.4,15,0.00,,BKN250,0.00,VWS V14.01,2013-01-18 23:43:00,
2013-01-18 15:48:00,80.4,28.6,29.56,SSW,202,3.4,3.4,15,0.00,,BKN250,0.00,VWS V14.01,2013-01-18 23:48:00,
2013-01-18 15:53:00,80.6,31.8,29.56,SSW,202,3.4,3.4,17,0.00,,BKN250,0.00,VWS V14.01,2013-01-18 23:53:00,
2013-01-18 15:58:00,80.8,27.2,29.56,SSW,202,3.4,3.4,14,0.00,,BKN250,0.00,VWS V14.01,2013-01-18 23:58:00,
2013-01-18 16:03:00,80.8,27.2,29.56,SSW,202,3.4,3.4,14,0.00,,BKN250,0.00,VWS V14.01,2013-01-19 00:03:00,
2013-01-18 16:08:00,81.1,27.5,29.56,SSW,202,3.4,3.4,14,0.00,,BKN250,0.00,VWS V14.01,2013-01-19 00:08:00,
2013-01-18 16:13:00,81.0,27.3,29.56,SSW,202,3.4,3.4,14,0.00,,BKN250,0.00,VWS V14.01,2013-01-19 00:13:00,
2013-01-18 16:18:00,81.0,32.1,29.56,SSW,202,3.4,3.4,17,0.00,,BKN250,0.00,VWS V14.01,2013-01-19 00:18:00,
2013-01-18 16:23:00,81.0,32.1,29.56,SSW,202,3.4,3.4,17,0.00,,BKN250,0.00,VWS V14.01,2013-01-19 00:23:00,
2013-01-18 16:28:00,79.7,28.0,29.56,SSW,202,3.4,3.4,15,0.00,,BKN250,0.00,VWS V14.01,2013-01-19 00:28:00,
2013-01-18 16:33:00,78.6,27.1,29.56,SSW,202,3.4,3.4,15,0.00,,BKN250,0.00,VWS V14.01,2013-01-19 00:33:00,
2013-01-18 16:38:00,78.3,26.9,29.56,SSW,202,3.4,3.4,15,0.00,,BKN250,0.00,VWS V14.01,2013-01-19 00:38:00,
2013-01-18 16:43:00,76.8,25.7,29.56,SSW,202,3.4,3.4,15,0.00,,BKN250,0.00,VWS V14.01,2013-01-19 00:43:00,
2013-01-18 16:48:00,74.1,25.1,29.56,SSW,202,3.4,3.4,16,0.00,,BKN250,0.00,VWS V14.01,2013-01-19 00:48:00,
2013-01-18 16:53:00,72.1,23.5,29.56,SSW,202,3.4,3.4,16,0.00,,BKN250,0.00,VWS V14.01,2013-01-19 00:53:00,
2013-01-18 16:58:00,70.5,23.6,29.56,SSW,202,3.4,3.4,17,0.00,,BKN250,0.00,VWS V14.01,2013-01-19 00:58:00,
2013-01-18 17:03:00,69.6,22.9,29.56,SSW,202,3.4,3.4,17,0.00,,SCT250,0.00,VWS V14.01,2013-01-19 01:03:00,
2013-01-18 17:08:00,68.7,22.2,29.56,SSW,202,3.4,3.4,17,0.00,,SCT250,0.00,VWS V14.01,2013-01-19 01:08:00,
2013-01-18 17:13:00,68.0,21.6,29.56,SSW,202,3.4,3.4,17,0.00,,SCT250,0.00,VWS V14.01,2013-01-19 01:13:00,
2013-01-18 17:18:00,67.1,20.9,29.56,SSW,202,3.4,3.4,17,0.00,,SCT250,0.00,VWS V14.01,2013-01-19 01:18:00,
2013-01-18 17:23:00,66.0,21.3,29.56,SSW,202,3.4,3.4,18,0.00,,SCT250,0.00,VWS V14.01,2013-01-19 01:23:00,
2013-01-18 17:28:00,65.1,20.6,29.56,SSW,202,3.4,3.4,18,0.00,,SCT250,0.00,VWS V14.01,2013-01-19 01:28:00,
2013-01-18 17:33:00,64.6,22.6,29.56,SSW,202,3.4,3.4,20,0.00,,SCT250,0.00,VWS V14.01,2013-01-19 01:33:00,
2013-01-18 17:38:00,64.0,23.3,29.56,SSW,202,3.4,3.4,21,0.00,,SCT250,0.00,VWS V14.01,2013-01-19 01:38:00,
2013-01-18 17:43:00,63.9,23.2,29.56,SSW,202,3.4,3.4,21,0.00,,SCT250,0.00,VWS V14.01,2013-01-19 01:43:00,
2013-01-18 17:48:00,63.1,22.6,29.56,SSW,202,3.4,3.4,21,0.00,,SCT250,0.00,VWS V14.01,2013-01-19 01:48:00,
2013-01-18 17:53:00,62.8,22.3,29.56,SSW,202,3.4,3.4,21,0.00,,SCT250,0.00,VWS V14.01,2013-01-19 01:53:00,
2013-01-18 17:58:00,62.6,22.1,29.56,SSW,202,3.4,3.4,21,0.00,,SCT250,0.00,VWS V14.01,2013-01-19 01:58:00,
2013-01-18 18:03:00,62.4,22.0,29.53,SSW,202,3.4,3.4,21,0.00,,FEW250,0.00,VWS V14.01,2013-01-19 02:03:00,
2013-01-18 18:08:00,63.0,22.5,29.53,SSW,202,3.4,3.4,21,0.00,,FEW250,0.00,VWS V14.01,2013-01-19 02:08:00,
2013-01-18 18:13:00,62.6,22.1,29.53,SSW,202,3.4,3.4,21,0.00,,FEW250,0.00,VWS V14.01,2013-01-19 02:13:00,
2013-01-18 18:18:00,62.2,21.9,29.56,SSW,202,3.4,3.4,21,0.00,,FEW250,0.00,VWS V14.01,2013-01-19 02:18:00,
2013-01-18 18:23:00,61.9,21.5,29.56,SSW,202,3.4,3.4,21,0.00,,FEW250,0.00,VWS V14.01,2013-01-19 02:23:00,
2013-01-18 18:29:00,61.7,24.6,29.56,SSW,202,3.4,3.4,24,0.00,,FEW250,0.00,VWS V14.01,2013-01-19 02:29:00,
2013-01-18 18:34:00,61.2,24.1,29.56,SSW,202,3.4,3.4,24,0.00,,FEW250,0.00,VWS V14.01,2013-01-19 02:34:00,
2013-01-18 18:39:00,61.3,24.3,29.56,SSW,202,3.4,3.4,24,0.00,,FEW250,0.00,VWS V14.01,2013-01-19 02:39:00,
2013-01-18 18:44:00,61.0,24.0,29.56,SSW,202,3.4,3.4,24,0.00,,FEW250,0.00,VWS V14.01,2013-01-19 02:44:00,
2013-01-18 18:50:00,60.8,23.8,29.56,SSW,202,3.4,3.4,24,0.00,,FEW250,0.00,VWS V14.01,2013-01-19 02:50:00,
2013-01-18 18:55:00,61.0,24.0,29.56,SSW,202,3.4,3.4,24,0.00,,FEW250,0.00,VWS V14.01,2013-01-19 02:55:00,
2013-01-18 19:00:00,61.0,24.0,29.56,SSW,202,3.4,3.4,24,0.00,,FEW250,0.00,VWS V14.01,2013-01-19 03:00:00,
2013-01-18 19:05:00,60.6,23.6,29.56,SSW,202,3.4,3.4,24,0.00,,FEW250,0.00,VWS V14.01,2013-01-19 03:05:00,
2013-01-18 19:10:00,60.4,24.5,29.56,SSW,202,3.4,3.4,25,0.00,,FEW250,0.00,VWS V14.01,2013-01-19 03:10:00,
2013-01-18 19:15:00,60.1,24.2,29.59,SSW,202,3.4,3.4,25,0.00,,FEW250,0.00,VWS V14.01,2013-01-19 03:15:00,
2013-01-18 19:20:00,59.9,24.0,29.59,SSW,202,3.4,3.4,25,0.00,,FEW250,0.00,VWS V14.01,2013-01-19 03:20:00,
2013-01-18 19:26:00,59.7,23.9,29.59,SSW,202,3.4,3.4,25,0.00,,FEW250,0.00,VWS V14.01,2013-01-19 03:26:00,
2013-01-18 19:31:00,59.7,23.9,29.56,SSW,202,3.4,3.4,25,0.00,,FEW250,0.00,VWS V14.01,2013-01-19 03:31:00,
2013-01-18 19:36:00,59.4,23.6,29.56,SSW,202,3.4,3.4,25,0.00,,FEW250,0.00,VWS V14.01,2013-01-19 03:36:00,
2013-01-18 19:41:00,59.5,23.7,29.56,SSW,202,3.4,3.4,25,0.00,,FEW250,0.00,VWS V14.01,2013-01-19 03:41:00,
2013-01-18 19:46:00,59.4,23.6,29.59,SSW,202,3.4,3.4,25,0.00,,FEW250,0.00,VWS V14.01,2013-01-19 03:46:00,
2013-01-18 19:51:00,59.2,23.4,29.59,SSW,202,3.4,3.4,25,0.00,,FEW250,0.00,VWS V14.01,2013-01-19 03:51:00,
2013-01-18 19:56:00,59.2,23.4,29.59,SSW,202,3.4,3.4,25,0.00,,FEW250,0.00,VWS V14.01,2013-01-19 03:56:00,
2013-01-18 20:01:00,59.2,23.4,29.59,SSW,202,3.4,3.4,25,0.00,,CLR,0.00,VWS V14.01,2013-01-19 04:01:00,
2013-01-18 20:07:00,58.8,23.1,29.59,SSW,202,3.4,3.4,25,0.00,,CLR,0.00,VWS V14.01,2013-01-19 04:07:00,
2013-01-18 20:12:00,57.9,22.3,29.59,SSW,202,3.4,3.4,25,0.00,,CLR,0.00,VWS V14.01,2013-01-19 04:12:00,
2013-01-18 20:17:00,57.4,22.8,29.59,SSW,202,3.4,3.4,26,0.00,,CLR,0.00,VWS V14.01,2013-01-19 04:17:00,
2013-01-18 20:22:00,57.0,23.4,29.59,SSW,202,3.4,3.4,27,0.00,,CLR,0.00,VWS V14.01,2013-01-19 04:22:00,
2013-01-18 20:27:00,56.8,23.2,29.59,SSW,202,3.4,3.4,27,0.00,,CLR,0.00,VWS V14.01,2013-01-19 04:27:00,
2013-01-18 20:32:00,56.8,23.2,29.59,SSW,202,3.4,3.4,27,0.00,,CLR,0.00,VWS V14.01,2013-01-19 04:32:00,
2013-01-18 20:37:00,56.5,22.9,29.59,SSW,202,3.4,3.4,27,0.00,,CLR,0.00,VWS V14.01,2013-01-19 04:37:00,
2013-01-18 20:42:00,56.1,22.6,29.59,SSW,202,3.4,3.4,27,0.00,,CLR,0.00,VWS V14.01,2013-01-19 04:42:00,
2013-01-18 20:47:00,55.9,22.5,29.59,SSW,202,3.4,3.4,27,0.00,,CLR,0.00,VWS V14.01,2013-01-19 04:47:00,
2013-01-18 20:52:00,55.4,22.0,29.59,SSW,202,3.4,3.4,27,0.00,,CLR,0.00,VWS V14.01,2013-01-19 04:52:00,
2013-01-18 20:57:00,55.2,22.7,29.59,SSW,202,3.4,3.4,28,0.00,,CLR,0.00,VWS V14.01,2013-01-19 04:57:00,
2013-01-18 21:01:00,55.6,23.0,29.59,SSW,202,3.4,3.4,28,0.00,,CLR,0.00,VWS V14.01,2013-01-19 05:01:00,
2013-01-18 21:02:00,55.8,23.2,29.59,SSW,202,3.4,3.4,28,0.00,,CLR,0.00,VWS V14.01,2013-01-19 05:02:00,
2013-01-18 21:07:00,56.5,23.8,29.59,SSW,202,3.4,3.4,28,0.00,,CLR,0.00,VWS V14.01,2013-01-19 05:07:00,
2013-01-18 21:12:00,56.5,23.8,29.59,SSW,202,3.4,3.4,28,0.00,,CLR,0.00,VWS V14.01,2013-01-19 05:12:00,
2013-01-18 21:18:00,56.5,23.8,29.59,SSW,202,3.4,3.4,28,0.00,,CLR,0.00,VWS V14.01,2013-01-19 05:18:00,
2013-01-18 21:23:00,56.7,24.0,29.59,SSW,202,3.4,3.4,28,0.00,,CLR,0.00,VWS V14.01,2013-01-19 05:23:00,
2013-01-18 21:28:00,56.5,22.9,29.59,SSW,202,3.4,3.4,27,0.00,,CLR,0.00,VWS V14.01,2013-01-19 05:28:00,
2013-01-18 21:33:00,56.3,22.8,29.59,SSW,202,3.4,3.4,27,0.00,,CLR,0.00,VWS V14.01,2013-01-19 05:33:00,
2013-01-18 21:38:00,55.9,22.5,29.59,SSW,202,3.4,3.4,27,0.00,,CLR,0.00,VWS V14.01,2013-01-19 05:38:00,
2013-01-18 21:43:00,55.2,22.7,29.59,SSW,202,3.4,3.4,28,0.00,,CLR,0.00,VWS V14.01,2013-01-19 05:43:00,
2013-01-18 21:48:00,54.5,22.1,29.59,SSW,202,3.4,3.4,28,0.00,,CLR,0.00,VWS V14.01,2013-01-19 05:48:00,
2013-01-18 21:53:00,54.5,22.1,29.59,SSW,202,3.4,3.4,28,0.00,,CLR,0.00,VWS V14.01,2013-01-19 05:53:00,
2013-01-18 21:58:00,54.1,21.8,29.59,SSW,202,3.4,3.4,28,0.00,,CLR,0.00,VWS V14.01,2013-01-19 05:58:00,
2013-01-18 22:03:00,53.6,21.3,29.59,SSW,202,3.4,3.4,28,0.00,,CLR,0.00,VWS V14.01,2013-01-19 06:03:00,
2013-01-18 22:08:00,53.6,21.3,29.59,SSW,202,3.4,3.4,28,0.00,,CLR,0.00,VWS V14.01,2013-01-19 06:08:00,
2013-01-18 22:13:00,53.6,21.3,29.59,SSW,202,3.4,3.4,28,0.00,,CLR,0.00,VWS V14.01,2013-01-19 06:13:00,
2013-01-18 22:18:00,54.0,21.6,29.59,SSW,202,3.4,3.4,28,0.00,,CLR,0.00,VWS V14.01,2013-01-19 06:18:00,
2013-01-18 22:24:00,54.7,22.2,29.59,SSW,202,3.4,3.4,28,0.00,,CLR,0.00,VWS V14.01,2013-01-19 06:24:00,
2013-01-18 22:29:00,55.0,21.7,29.59,SSW,202,3.4,3.4,27,0.00,,CLR,0.00,VWS V14.01,2013-01-19 06:29:00,
2013-01-18 22:34:00,55.4,22.0,29.62,SSW,202,3.4,3.4,27,0.00,,CLR,0.00,VWS V14.01,2013-01-19 06:34:00,
2013-01-18 22:39:00,55.4,22.0,29.62,SSW,202,3.4,3.4,27,0.00,,CLR,0.00,VWS V14.01,2013-01-19 06:39:00,
2013-01-18 22:44:00,54.5,22.1,29.62,SSW,202,3.4,3.4,28,0.00,,CLR,0.00,VWS V14.01,2013-01-19 06:44:00,
2013-01-18 22:49:00,53.8,21.5,29.62,SSW,202,3.4,3.4,28,0.00,,CLR,0.00,VWS V14.01,2013-01-19 06:49:00,
2013-01-18 22:54:00,53.6,21.3,29.62,SSW,202,3.4,3.4,28,0.00,,CLR,0.00,VWS V14.01,2013-01-19 06:54:00,
2013-01-18 22:59:00,53.2,21.8,29.62,SSW,202,3.4,3.4,29,0.00,,CLR,0.00,VWS V14.01,2013-01-19 06:59:00,
2013-01-18 23:04:00,53.6,22.1,29.59,SSW,202,3.4,3.4,29,0.00,,CLR,0.00,VWS V14.01,2013-01-19 07:04:00,
2013-01-18 23:09:00,53.8,22.3,29.59,SSW,202,3.4,3.4,29,0.00,,CLR,0.00,VWS V14.01,2013-01-19 07:09:00,
2013-01-18 23:14:00,53.2,21.8,29.59,SSW,202,3.4,3.4,29,0.00,,CLR,0.00,VWS V14.01,2013-01-19 07:14:00,
2013-01-18 23:19:00,53.1,21.7,29.59,SSW,202,3.4,3.4,29,0.00,,CLR,0.00,VWS V14.01,2013-01-19 07:19:00,
2013-01-18 23:24:00,52.9,22.3,29.59,SSW,202,3.4,3.4,30,0.00,,CLR,0.00,VWS V14.01,2013-01-19 07:24:00,
2013-01-18 23:29:00,53.4,22.0,29.59,SSW,202,3.4,3.4,29,0.00,,CLR,0.00,VWS V14.01,2013-01-19 07:29:00,
2013-01-18 23:34:00,53.4,22.8,29.59,SSW,202,3.4,3.4,30,0.00,,CLR,0.00,VWS V14.01,2013-01-19 07:34:00,
2013-01-18 23:39:00,54.0,22.5,29.59,SSW,202,3.4,3.4,29,0.00,,CLR,0.00,VWS V14.01,2013-01-19 07:39:00,
2013-01-18 23:44:00,54.5,22.9,29.59,SSW,202,3.4,3.4,29,0.00,,CLR,0.00,VWS V14.01,2013-01-19 07:44:00,
2013-01-18 23:49:00,54.7,23.1,29.59,SSW,202,3.4,3.4,29,0.00,,CLR,0.00,VWS V14.01,2013-01-19 07:49:00,
2013-01-18 23:54:00,54.0,22.5,29.59,SSW,202,3.4,3.4,29,0.00,,CLR,0.00,VWS V14.01,2013-01-19 07:54:00,
2013-01-18 23:59:00,53.6,22.1,29.59,SSW,202,3.4,3.4,29,0.00,,CLR,0.00,VWS V14.01,2013-01-19 07:59:00,